When you browse on this site, cookies collect data to enhance your experience and personalize the content and advertising you see.
Visit our Privacy Policy to learn more. By continuing to use the site, you agree to this use of cookies and data.
  • In Hungary
  • List of Countries
  • For 7 days
  • Water Temperature
  • Weather Map
  • News
  • Weather Widgets
  • user-avatar
    Login

    Hourly Weather Caninde

    Today, 13 November, Wednesday

    Time Temperature Precipitation Wind Pressure Humidity
    00:00 +24°C° 0 mm 1 mps 741 mmHg 88%
    01:00 +24°C° 0 mm 1 mps 741 mmHg 88%
    02:00 +24°C° 0 mm 2 mps 741 mmHg 87%
    03:00 +24°C° 0 mm 2 mps 741 mmHg 86%
    04:00 +24°C° 0 mm 2 mps 741 mmHg 84%
    05:00 +24°C° 0 mm 2 mps 742 mmHg 82%
    06:00 +24°C° 0 mm 2 mps 743 mmHg 80%
    07:00 +27°C° 0 mm 2 mps 743 mmHg 67%
    08:00 +30°C° 0 mm 3 mps 743 mmHg 55%
    09:00 +33°C° 0 mm 3 mps 744 mmHg 42%
    10:00 +35°C° 0 mm 3 mps 743 mmHg 36%
    11:00 +37°C° 0 mm 3 mps 743 mmHg 30%
    12:00 +39°C° 0 mm 3 mps 742 mmHg 25%
    13:00 +40°C° 0 mm 3 mps 741 mmHg 23%
    14:00 +40°C° 0 mm 3 mps 741 mmHg 21%
    15:00 +42°C° 0 mm 3 mps 740 mmHg 20%
    16:00 +38°C° 0 mm 3 mps 740 mmHg 27%
    17:00 +35°C° 0 mm 3 mps 740 mmHg 34%
    18:00 +33°C° 0 mm 3 mps 740 mmHg 42%
    19:00 +30°C° 0 mm 3 mps 741 mmHg 53%
    20:00 +28°C° 0 mm 2 mps 742 mmHg 64%
    21:00 +26°C° 0 mm 1 mps 742 mmHg 75%
    22:00 +25°C° 0 mm 1 mps 742 mmHg 80%
    23:00 +24°C° 0 mm 1 mps 742 mmHg 85%

    Tomorrow, 14 November, Thursday

    Time Temperature Precipitation Wind Pressure Humidity
    00:00 +24°C° 0 mm 1 mps 742 mmHg 90%
    01:00 +24°C° 0 mm 1 mps 742 mmHg 89%
    02:00 +24°C° 0 mm 1 mps 742 mmHg 87%
    03:00 +25°C° 0 mm 2 mps 742 mmHg 86%
    04:00 +25°C° 0 mm 2 mps 742 mmHg 82%
    05:00 +26°C° 0 mm 3 mps 742 mmHg 79%
    06:00 +26°C° 0 mm 3 mps 743 mmHg 76%
    07:00 +28°C° 0 mm 3 mps 743 mmHg 66%
    08:00 +30°C° 0 mm 4 mps 744 mmHg 55%
    09:00 +33°C° 0 mm 4 mps 744 mmHg 45%
    10:00 +35°C° 0 mm 4 mps 743 mmHg 40%
    11:00 +37°C° 0 mm 4 mps 743 mmHg 34%
    12:00 +40°C° 0 mm 4 mps 742 mmHg 29%
    13:00 +40°C° 0 mm 4 mps 741 mmHg 28%
    14:00 +40°C° 0 mm 4 mps 741 mmHg 27%
    15:00 +41°C° 0 mm 4 mps 740 mmHg 26%
    16:00 +37°C° 0 mm 4 mps 740 mmHg 34%
    17:00 +35°C° 0 mm 4 mps 740 mmHg 42%
    18:00 +32°C° 0 mm 4 mps 740 mmHg 50%
    19:00 +30°C° 0 mm 3 mps 741 mmHg 58%
    20:00 +28°C° 0 mm 2 mps 741 mmHg 66%
    21:00 +26°C° 0 mm 1 mps 742 mmHg 74%
    22:00 +25°C° 0 mm 1 mps 742 mmHg 79%
    23:00 +25°C° 0 mm 1 mps 742 mmHg 84%

    Day after tomorrow, 15 November, Friday

    Time Temperature Precipitation Wind Pressure Humidity
    00:00 +24°C° 0 mm 1 mps 741 mmHg 90%
    01:00 +25°C° 0 mm 1 mps 741 mmHg 88%
    02:00 +25°C° 0 mm 2 mps 741 mmHg 86%
    03:00 +25°C° 0 mm 2 mps 741 mmHg 84%
    04:00 +26°C° 0 mm 2 mps 741 mmHg 81%
    05:00 +26°C° 0 mm 2 mps 742 mmHg 79%
    06:00 +26°C° 0 mm 3 mps 742 mmHg 76%
    07:00 +28°C° 0 mm 3 mps 742 mmHg 67%
    08:00 +30°C° 0 mm 3 mps 743 mmHg 59%
    09:00 +31°C° 0 mm 3 mps 743 mmHg 51%
    10:00 +34°C° 0 mm 3 mps 743 mmHg 45%
    11:00 +36°C° 0 mm 3 mps 742 mmHg 39%
    12:00 +38°C° 0 mm 3 mps 741 mmHg 33%
    13:00 +38°C° 0 mm 3 mps 741 mmHg 31%
    14:00 +39°C° 0 mm 3 mps 740 mmHg 29%
    15:00 +39°C° 0 mm 3 mps 739 mmHg 28%
    16:00 +37°C° 0 mm 3 mps 739 mmHg 33%
    17:00 +35°C° 0 mm 2 mps 739 mmHg 38%
    18:00 +32°C° 0 mm 2 mps 739 mmHg 43%
    19:00 +30°C° 0 mm 2 mps 740 mmHg 54%
    20:00 +28°C° 0 mm 2 mps 740 mmHg 65%
    21:00 +26°C° 0 mm 1 mps 741 mmHg 76%
    22:00 +25°C° 0 mm 1 mps 740 mmHg 81%
    23:00 +24°C° 0 mm 1 mps 740 mmHg 87%

    16 November, Saturday

    Time Temperature Precipitation Wind Pressure Humidity
    00:00 +24°C° 0 mm 1 mps 740 mmHg 92%
    01:00 +23°C° 0 mm 1 mps 740 mmHg 93%
    02:00 +23°C° 0 mm 1 mps 739 mmHg 93%
    03:00 +21°C° 0 mm 0 mps 739 mmHg 94%
    04:00 +24°C° 0 mm 1 mps 740 mmHg 90%
    05:00 +24°C° 0 mm 1 mps 740 mmHg 87%
    06:00 +25°C° 0 mm 1 mps 741 mmHg 84%
    07:00 +27°C° 0 mm 1 mps 741 mmHg 75%
    08:00 +29°C° 0 mm 1 mps 742 mmHg 66%
    09:00 +30°C° 0 mm 2 mps 742 mmHg 57%
    10:00 +34°C° 0 mm 2 mps 742 mmHg 48%
    11:00 +36°C° 0 mm 2 mps 741 mmHg 40%
    12:00 +39°C° 0 mm 3 mps 741 mmHg 32%
    13:00 +39°C° 0 mm 3 mps 740 mmHg 30%
    14:00 +40°C° 0 mm 3 mps 739 mmHg 28%
    15:00 +40°C° 0 mm 3 mps 738 mmHg 26%
    16:00 +37°C° 0 mm 3 mps 738 mmHg 34%
    17:00 +35°C° 0 mm 4 mps 739 mmHg 43%
    18:00 +32°C° 0 mm 4 mps 739 mmHg 52%
    19:00 +29°C° 0 mm 3 mps 739 mmHg 60%
    20:00 +28°C° 0 mm 2 mps 740 mmHg 69%
    21:00 +26°C° 0 mm 1 mps 740 mmHg 78%
    22:00 +25°C° 0 mm 1 mps 740 mmHg 83%
    23:00 +24°C° 0 mm 1 mps 740 mmHg 88%

    17 November, Sunday

    Time Temperature Precipitation Wind Pressure Humidity
    00:00 +24°C° 0 mm 1 mps 740 mmHg 92%
    01:00 +22°C° 0 mm 0 mps 739 mmHg 93%
    02:00 +21°C° 0 mm 0 mps 739 mmHg 94%
    03:00 +21°C° 0 mm 0 mps 739 mmHg 95%
    04:00 +22°C° 0 mm 0 mps 740 mmHg 92%
    05:00 +24°C° 0 mm 1 mps 740 mmHg 89%
    06:00 +25°C° 0 mm 1 mps 741 mmHg 85%
    07:00 +27°C° 0 mm 1 mps 741 mmHg 73%
    08:00 +30°C° 0 mm 2 mps 742 mmHg 61%
    09:00 +34°C° 0 mm 2 mps 743 mmHg 48%
    10:00 +36°C° 0 mm 3 mps 742 mmHg 42%
    11:00 +37°C° 0 mm 3 mps 741 mmHg 36%
    12:00 +40°C° 0 mm 4 mps 741 mmHg 30%
    13:00 +40°C° 0 mm 4 mps 740 mmHg 29%
    14:00 +41°C° 0 mm 4 mps 739 mmHg 27%
    15:00 +41°C° 0 mm 4 mps 739 mmHg 26%
    16:00 +37°C° 0 mm 4 mps 739 mmHg 34%
    17:00 +35°C° 0 mm 4 mps 739 mmHg 42%
    18:00 +32°C° 0 mm 4 mps 739 mmHg 50%
    19:00 +29°C° 0 mm 3 mps 740 mmHg 60%
    20:00 +27°C° 0 mm 2 mps 740 mmHg 70%
    21:00 +25°C° 0 mm 1 mps 741 mmHg 80%
    22:00 +25°C° 0 mm 1 mps 741 mmHg 85%
    23:00 +24°C° 0 mm 1 mps 741 mmHg 89%

    18 November, Monday

    Time Temperature Precipitation Wind Pressure Humidity
    00:00 +22°C° 0 mm 0 mps 741 mmHg 93%
    01:00 +21°C° 0 mm 0 mps 741 mmHg 93%
    02:00 +21°C° 0 mm 0 mps 741 mmHg 94%
    03:00 +21°C° 0 mm 0 mps 740 mmHg 94%
    04:00 +24°C° 0 mm 1 mps 741 mmHg 90%
    05:00 +25°C° 0 mm 1 mps 742 mmHg 86%
    06:00 +26°C° 0 mm 1 mps 742 mmHg 82%
    07:00 +28°C° 0 mm 2 mps 743 mmHg 70%
    08:00 +30°C° 0 mm 3 mps 743 mmHg 59%
    09:00 +34°C° 0 mm 3 mps 744 mmHg 47%
    10:00 +36°C° 0 mm 4 mps 743 mmHg 42%
    11:00 +37°C° 0 mm 4 mps 743 mmHg 37%
    12:00 +40°C° 0 mm 4 mps 742 mmHg 31%
    13:00 +40°C° 0 mm 4 mps 741 mmHg 30%
    14:00 +40°C° 0 mm 4 mps 741 mmHg 29%
    15:00 +41°C° 0 mm 4 mps 740 mmHg 28%
    16:00 +37°C° 0 mm 4 mps 740 mmHg 36%
    17:00 +35°C° 0 mm 4 mps 741 mmHg 43%
    18:00 +33°C° 0 mm 4 mps 741 mmHg 51%
    19:00 +30°C° 0 mm 3 mps 741 mmHg 60%
    20:00 +28°C° 0 mm 2 mps 742 mmHg 69%
    21:00 +27°C° 0 mm 1 mps 742 mmHg 77%
    22:00 +26°C° 0 mm 1 mps 742 mmHg 82%
    23:00 +25°C° 0 mm 1 mps 742 mmHg 86%
    Show more